Time,TemperatureF,DewpointF,PressureIn,WindDirection,WindDirectionDegrees,WindSpeedMPH,WindSpeedGustMPH,Humidity,HourlyPrecipIn,Conditions,Clouds,dailyrainin,SoftwareType,DateUTC
2013-07-04 00:06:00,72.2,71.0,30.00,ENE,65,3.0,6.0,97,0.00,,,0.00,weatherlink.com 1.10,2013-07-04 05:06:00,
2013-07-04 00:21:00,72.2,71.0,30.01,NE,43,0.0,6.0,97,0.00,,,0.00,weatherlink.com 1.10,2013-07-04 05:21:00,
2013-07-04 00:36:00,71.9,71.0,30.00,East,82,2.0,8.0,97,0.00,,,0.00,weatherlink.com 1.10,2013-07-04 05:36:00,
2013-07-04 00:51:00,71.7,71.0,30.00,ENE,73,1.0,8.0,97,0.00,,,0.00,weatherlink.com 1.10,2013-07-04 05:51:00,
2013-07-04 01:07:00,71.6,71.0,30.00,ESE,115,2.0,8.0,98,0.00,,,0.00,weatherlink.com 1.10,2013-07-04 06:07:00,
2013-07-04 01:22:00,71.6,71.0,29.99,ENE,77,3.0,9.0,98,0.00,,,0.00,weatherlink.com 1.10,2013-07-04 06:22:00,
2013-07-04 01:37:00,71.7,71.0,29.99,ESE,106,3.0,9.0,98,0.00,,,0.00,weatherlink.com 1.10,2013-07-04 06:37:00,
2013-07-04 01:52:00,71.7,71.0,29.98,East,79,0.0,5.0,98,0.00,,,0.00,weatherlink.com 1.10,2013-07-04 06:52:00,
2013-07-04 02:07:00,71.7,71.0,29.98,East,93,2.0,4.0,98,0.00,,,0.00,weatherlink.com 1.10,2013-07-04 07:07:00,
2013-07-04 02:22:00,71.8,71.0,29.98,North,1,1.0,7.0,98,0.00,,,0.00,weatherlink.com 1.10,2013-07-04 07:22:00,
2013-07-04 02:37:00,71.9,71.0,29.97,ENE,60,5.0,6.0,98,0.01,,,0.01,weatherlink.com 1.10,2013-07-04 07:37:00,
2013-07-04 02:52:00,72.1,72.0,29.97,SSE,147,4.0,6.0,98,0.01,,,0.01,weatherlink.com 1.10,2013-07-04 07:52:00,
2013-07-04 03:07:00,72.2,72.0,29.97,East,81,2.0,4.0,98,0.01,,,0.01,weatherlink.com 1.10,2013-07-04 08:07:00,
2013-07-04 03:22:00,72.3,72.0,29.97,NE,45,0.0,4.0,98,0.02,,,0.02,weatherlink.com 1.10,2013-07-04 08:22:00,
2013-07-04 03:37:00,72.3,72.0,29.97,ENE,74,0.0,2.0,98,0.03,,,0.04,weatherlink.com 1.10,2013-07-04 08:37:00,
2013-07-04 03:52:00,72.4,72.0,29.97,SE,135,2.0,2.0,98,0.05,,,0.06,weatherlink.com 1.10,2013-07-04 08:52:00,
2013-07-04 04:07:00,72.4,72.0,29.97,East,101,2.0,5.0,98,0.09,,,0.10,weatherlink.com 1.10,2013-07-04 09:07:00,
2013-07-04 04:22:00,72.5,72.0,29.97,ESE,106,0.0,2.0,98,0.11,,,0.13,weatherlink.com 1.10,2013-07-04 09:22:00,
2013-07-04 04:37:00,72.4,72.0,29.96,East,98,1.0,5.0,98,0.12,,,0.16,weatherlink.com 1.10,2013-07-04 09:37:00,
2013-07-04 04:52:00,72.4,72.0,29.95,South,176,0.0,8.0,98,0.12,,,0.18,weatherlink.com 1.10,2013-07-04 09:52:00,
2013-07-04 05:07:00,72.5,72.0,29.96,ESE,107,1.0,8.0,98,0.08,,,0.18,weatherlink.com 1.10,2013-07-04 10:07:00,
2013-07-04 05:22:00,72.6,72.0,29.97,SSW,204,0.0,7.0,98,0.08,,,0.21,weatherlink.com 1.10,2013-07-04 10:22:00,
2013-07-04 05:37:00,72.7,72.0,29.98,SSE,160,0.0,4.0,98,0.07,,,0.23,weatherlink.com 1.10,2013-07-04 10:37:00,
2013-07-04 05:52:00,72.7,72.0,29.98,SSE,167,0.0,5.0,98,0.09,,,0.27,weatherlink.com 1.10,2013-07-04 10:52:00,
2013-07-04 06:07:00,72.6,72.0,29.98,NNW,328,1.0,3.0,98,0.14,,,0.32,weatherlink.com 1.10,2013-07-04 11:07:00,
2013-07-04 06:22:00,72.5,72.0,29.97,NNW,340,0.0,2.0,98,0.15,,,0.36,weatherlink.com 1.10,2013-07-04 11:22:00,
2013-07-04 06:37:00,72.3,72.0,29.98,WNW,286,0.0,2.0,98,0.17,,,0.40,weatherlink.com 1.10,2013-07-04 11:37:00,
2013-07-04 06:52:00,72.4,72.0,29.98,NE,53,1.0,3.0,98,0.14,,,0.41,weatherlink.com 1.10,2013-07-04 11:52:00,
2013-07-04 07:07:00,72.4,72.0,29.98,NW,319,2.0,6.0,98,0.11,,,0.43,weatherlink.com 1.10,2013-07-04 12:07:00,
2013-07-04 07:22:00,72.5,72.0,29.98,ENE,68,1.0,8.0,98,0.14,,,0.50,weatherlink.com 1.10,2013-07-04 12:22:00,
2013-07-04 07:37:00,72.6,72.0,30.00,ENE,62,4.0,4.0,98,0.19,,,0.59,weatherlink.com 1.10,2013-07-04 12:37:00,
2013-07-04 07:52:00,72.6,72.0,29.99,SE,141,2.0,3.0,98,0.29,,,0.70,weatherlink.com 1.10,2013-07-04 12:52:00,
2013-07-04 08:07:00,72.5,72.0,29.99,North,352,2.0,6.0,98,0.53,,,0.96,weatherlink.com 1.10,2013-07-04 13:07:00,
2013-07-04 08:22:00,72.4,72.0,29.98,ENE,62,5.0,7.0,98,0.82,,,1.32,weatherlink.com 1.10,2013-07-04 13:22:00,
2013-07-04 08:37:00,72.2,72.0,29.98,NE,41,1.0,6.0,98,1.22,,,1.82,weatherlink.com 1.10,2013-07-04 13:37:00,
2013-07-04 08:52:00,72.2,72.0,29.97,NW,319,2.0,5.0,98,1.22,,,1.93,weatherlink.com 1.10,2013-07-04 13:52:00,
2013-07-04 09:07:00,72.2,72.0,29.97,NE,43,4.0,8.0,98,1.03,,,2.00,weatherlink.com 1.10,2013-07-04 14:07:00,
2013-07-04 09:22:00,72.2,72.0,29.97,SE,136,0.0,8.0,98,0.75,,,2.07,weatherlink.com 1.10,2013-07-04 14:22:00,
2013-07-04 09:37:00,72.2,72.0,29.96,East,85,0.0,7.0,98,0.32,,,2.14,weatherlink.com 1.10,2013-07-04 14:37:00,
2013-07-04 09:52:00,72.3,72.0,29.96,South,169,4.0,11.0,98,0.26,,,2.19,weatherlink.com 1.10,2013-07-04 14:52:00,
2013-07-04 10:07:00,72.4,72.0,29.97,NNE,33,0.0,8.0,98,0.23,,,2.23,weatherlink.com 1.10,2013-07-04 15:07:00,
2013-07-04 10:22:00,72.4,72.0,29.96,WSW,240,0.0,14.0,98,0.19,,,2.26,weatherlink.com 1.10,2013-07-04 15:22:00,
2013-07-04 10:37:00,72.4,72.0,29.96,WSW,243,0.0,10.0,98,0.15,,,2.29,weatherlink.com 1.10,2013-07-04 15:37:00,
2013-07-04 10:52:00,72.5,72.0,29.97,ESE,115,1.0,9.0,98,0.12,,,2.31,weatherlink.com 1.10,2013-07-04 15:52:00,
2013-07-04 11:07:00,72.6,72.0,29.98,East,86,3.0,11.0,98,0.10,,,2.33,weatherlink.com 1.10,2013-07-04 16:07:00,
2013-07-04 11:22:00,72.5,72.0,29.98,ESE,114,5.0,15.0,98,0.09,,,2.35,weatherlink.com 1.10,2013-07-04 16:22:00,
2013-07-04 11:37:00,72.4,72.0,29.98,SSE,159,0.0,7.0,98,0.08,,,2.37,weatherlink.com 1.10,2013-07-04 16:37:00,
2013-07-04 11:52:00,72.4,72.0,29.97,ESE,105,2.0,9.0,98,0.08,,,2.39,weatherlink.com 1.10,2013-07-04 16:52:00,
2013-07-04 12:07:00,72.5,72.0,29.98,East,101,1.0,6.0,98,0.08,,,2.41,weatherlink.com 1.10,2013-07-04 17:07:00,
2013-07-04 12:22:00,72.4,72.0,29.98,SSE,155,4.0,9.0,98,0.08,,,2.43,weatherlink.com 1.10,2013-07-04 17:22:00,
2013-07-04 12:37:00,72.3,72.0,29.96,East,80,1.0,8.0,98,0.09,,,2.46,weatherlink.com 1.10,2013-07-04 17:37:00,
2013-07-04 12:52:00,72.2,72.0,29.97,SE,141,3.0,8.0,98,0.10,,,2.49,weatherlink.com 1.10,2013-07-04 17:52:00,
2013-07-04 13:07:00,72.4,72.0,29.97,East,96,4.0,8.0,98,0.09,,,2.50,weatherlink.com 1.10,2013-07-04 18:07:00,
2013-07-04 13:22:00,72.5,72.0,29.97,SSW,199,2.0,8.0,98,0.09,,,2.52,weatherlink.com 1.10,2013-07-04 18:22:00,
2013-07-04 13:37:00,72.6,72.0,29.98,South,183,0.0,8.0,98,0.07,,,2.53,weatherlink.com 1.10,2013-07-04 18:37:00,
2013-07-04 13:52:00,72.4,72.0,29.98,ESE,103,4.0,9.0,98,0.04,,,2.53,weatherlink.com 1.10,2013-07-04 18:52:00,
2013-07-04 14:07:00,71.8,71.0,29.97,SSE,148,5.0,9.0,97,0.03,,,2.53,weatherlink.com 1.10,2013-07-04 19:07:00,
2013-07-04 14:22:00,71.8,71.0,29.97,SE,129,2.0,8.0,96,0.01,,,2.53,weatherlink.com 1.10,2013-07-04 19:22:00,
2013-07-04 14:37:00,72.0,71.0,29.97,ESE,117,5.0,9.0,96,0.00,,,2.53,weatherlink.com 1.10,2013-07-04 19:37:00,
2013-07-04 14:52:00,72.0,71.0,29.98,SSW,207,1.0,7.0,97,0.00,,,2.53,weatherlink.com 1.10,2013-07-04 19:52:00,
2013-07-04 15:07:00,72.2,71.0,29.97,SSE,159,2.0,9.0,97,0.00,,,2.53,weatherlink.com 1.10,2013-07-04 20:07:00,
2013-07-04 15:22:00,72.6,72.0,29.96,East,87,3.0,8.0,97,0.00,,,2.53,weatherlink.com 1.10,2013-07-04 20:22:00,
2013-07-04 15:37:00,73.1,72.0,29.96,ESE,108,3.0,11.0,97,0.00,,,2.53,weatherlink.com 1.10,2013-07-04 20:37:00,
2013-07-04 15:53:00,73.8,73.0,29.95,SE,143,4.0,7.0,97,0.00,,,2.53,weatherlink.com 1.10,2013-07-04 20:53:00,
2013-07-04 16:08:00,74.0,73.0,29.95,East,93,5.0,8.0,96,0.00,,,2.53,weatherlink.com 1.10,2013-07-04 21:08:00,
2013-07-04 16:23:00,73.6,72.0,29.95,SE,139,5.0,13.0,95,0.00,,,2.53,weatherlink.com 1.10,2013-07-04 21:23:00,
2013-07-04 16:38:00,73.7,72.0,29.95,East,97,2.0,11.0,95,0.00,,,2.53,weatherlink.com 1.10,2013-07-04 21:38:00,
2013-07-04 16:53:00,73.5,72.0,29.96,SE,128,2.0,14.0,95,0.00,,,2.53,weatherlink.com 1.10,2013-07-04 21:53:00,
2013-07-04 17:08:00,73.6,72.0,29.97,SW,217,4.0,11.0,95,0.00,,,2.53,weatherlink.com 1.10,2013-07-04 22:08:00,
2013-07-04 17:23:00,73.9,72.0,29.97,SE,141,1.0,8.0,94,0.00,,,2.53,weatherlink.com 1.10,2013-07-04 22:23:00,
2013-07-04 17:38:00,73.8,72.0,29.97,SW,217,1.0,7.0,94,0.00,,,2.53,weatherlink.com 1.10,2013-07-04 22:38:00,
2013-07-04 17:53:00,73.7,72.0,29.98,SSE,160,6.0,8.0,95,0.00,,,2.53,weatherlink.com 1.10,2013-07-04 22:53:00,
2013-07-04 18:08:00,73.6,72.0,29.98,East,99,5.0,11.0,95,0.00,,,2.53,weatherlink.com 1.10,2013-07-04 23:08:00,
2013-07-04 18:23:00,73.4,72.0,29.99,SE,141,3.0,12.0,95,0.00,,,2.53,weatherlink.com 1.10,2013-07-04 23:23:00,
2013-07-04 18:38:00,73.2,72.0,29.99,SW,219,5.0,12.0,95,0.00,,,2.53,weatherlink.com 1.10,2013-07-04 23:38:00,
2013-07-04 18:53:00,73.3,72.0,29.99,SSE,165,6.0,10.0,95,0.00,,,2.53,weatherlink.com 1.10,2013-07-04 23:53:00,
2013-07-04 19:08:00,73.3,72.0,29.99,ENE,67,2.0,7.0,96,0.00,,,2.53,weatherlink.com 1.10,2013-07-05 00:08:00,
2013-07-04 19:23:00,73.3,72.0,29.99,SW,236,0.0,6.0,96,0.00,,,2.53,weatherlink.com 1.10,2013-07-05 00:23:00,
2013-07-04 19:38:00,73.5,72.0,29.99,WSW,243,0.0,10.0,96,0.00,,,2.53,weatherlink.com 1.10,2013-07-05 00:38:00,
2013-07-04 19:53:00,73.5,72.0,29.99,SE,125,2.0,8.0,96,0.00,,,2.53,weatherlink.com 1.10,2013-07-05 00:53:00,
2013-07-04 20:08:00,73.6,72.0,29.98,South,187,6.0,9.0,96,0.00,,,2.53,weatherlink.com 1.10,2013-07-05 01:08:00,
2013-07-04 20:23:00,73.5,72.0,29.99,SSE,155,0.0,11.0,96,0.00,,,2.53,weatherlink.com 1.10,2013-07-05 01:23:00,
2013-07-04 20:38:00,73.8,73.0,30.00,SSE,162,6.0,10.0,96,0.00,,,2.53,weatherlink.com 1.10,2013-07-05 01:38:00,
2013-07-04 20:53:00,73.9,73.0,30.00,SSW,200,5.0,7.0,96,0.00,,,2.53,weatherlink.com 1.10,2013-07-05 01:53:00,
2013-07-04 21:08:00,74.1,73.0,30.01,SW,218,6.0,7.0,95,0.00,,,2.53,weatherlink.com 1.10,2013-07-05 02:08:00,
2013-07-04 21:23:00,74.1,73.0,30.02,SSW,205,3.0,11.0,95,0.00,,,2.53,weatherlink.com 1.10,2013-07-05 02:23:00,
2013-07-04 21:38:00,74.0,73.0,30.03,SE,128,1.0,6.0,95,0.00,,,2.53,weatherlink.com 1.10,2013-07-05 02:38:00,
2013-07-04 21:53:00,73.6,72.0,30.03,SW,225,0.0,5.0,95,0.00,,,2.53,weatherlink.com 1.10,2013-07-05 02:53:00,
2013-07-04 22:08:00,73.4,72.0,30.03,SSE,150,0.0,4.0,96,0.00,,,2.53,weatherlink.com 1.10,2013-07-05 03:08:00,
2013-07-04 22:23:00,73.1,72.0,30.04,SSE,150,0.0,5.0,96,0.00,,,2.53,weatherlink.com 1.10,2013-07-05 03:23:00,
2013-07-04 22:38:00,72.9,72.0,30.05,SSE,152,0.0,3.0,96,0.00,,,2.53,weatherlink.com 1.10,2013-07-05 03:38:00,
2013-07-04 22:53:00,73.0,72.0,30.05,SSW,193,0.0,3.0,97,0.00,,,2.53,weatherlink.com 1.10,2013-07-05 03:53:00,
2013-07-04 23:08:00,73.1,72.0,30.05,ESE,120,1.0,6.0,96,0.00,,,2.53,weatherlink.com 1.10,2013-07-05 04:08:00,
2013-07-04 23:23:00,72.8,72.0,30.04,ESE,111,3.0,4.0,97,0.00,,,2.53,weatherlink.com 1.10,2013-07-05 04:23:00,
2013-07-04 23:38:00,72.5,72.0,30.03,NE,48,0.0,3.0,97,0.00,,,2.53,weatherlink.com 1.10,2013-07-05 04:38:00,
2013-07-04 23:53:00,72.2,71.0,30.02,ENE,64,3.0,5.0,97,0.00,,,2.53,weatherlink.com 1.10,2013-07-05 04:53:00,